(326291) = 1998 HM3

Discovered at Socorro on 1998-04-21 by LINEAR.

Orbit

Orbit type: Amor
Near-Earth Object

Note: WebGL enabled browser required.

epoch2023-02-25.0
epoch JD2460000.5
perihelion date2022-06-18.28492
perihelion JD2459748.78492
argument of perihelion (°)137.08364
ascending node (°)210.80754
inclination (°)39.33258
eccentricity0.0621697
perihelion distance (AU)1.1690841
Tisserand w.r.t. Jupiter4.9
ΔV w.r.t. Earth (km/sec)16.1
semimajor axis (AU)1.2465839
mean anomaly (°)178.25052
mean daily motion (°/day)0.70814400
aphelion distance (AU)1.324
period (years)1.39
P-vector [x]0.89875381
P-vector [y]-0.24258770
P-vector [z]0.36522978
Q-vector [x]0.29473148
Q-vector [y]0.95098257
Q-vector [z]-0.09362426
absolute magnitude19.0
phase slope0.15
uncertainty0
referenceMPO 745323
observations used516
oppositions7
arc length (days)9172
first opposition used1998
last opposition used2023
residual rms (arc-secs)0.72
perturbers coarse indicatorM-v
perturbers precise indicator003Ek
first observation date used1998-04-21.0
last observation date used2023-06-01.0
computer nameMPCLINUX
JD of orbit computation2456026.225135
perihelion JD uncertainty (days)2.0377E-04
argument of perihelion uncertainty (°)1.5177E-04
ascending node uncertainty (°)7.7628E-06
inclination uncertainty (°)2.9477E-05
eccentricity uncertainty 1.2439E-07
perihelion distance uncertainty (AU)1.5551E-07
Minimum Orbit Intersection Distances (in AU)
for orbit epoch: 2460000.5, reference: E2023-L11
Mercury0.84268
Venus0.46517
Earth0.19127
Mars0.24481
Jupiter3.7718
Saturn7.95965
Uranus17.2239
Neptune28.6643

Observations

582 total observations over interval: 1998 04 21.30419 – 2023 06 01.213647
These data are available for download (format description).

Date (UT) J2000 RA J2000 Dec Magn Location Ref
1998 04 21.30419 14 36 24.14 -07 45 17.1 17.6   704 – Lincoln Laboratory ETS, New Mexico MPS 1066
1998 04 21.32450 14 36 21.79 -07 42 44.8 17.9   704 – Lincoln Laboratory ETS, New Mexico MPS 1066
1998 04 21.34459 14 36 19.53 -07 40 15.4 18.4   704 – Lincoln Laboratory ETS, New Mexico MPS 1066
1998 04 21.36498 14 36 17.23 -07 37 41.6 17.9   704 – Lincoln Laboratory ETS, New Mexico MPS 1066
1998 04 21.38544 14 36 15.03 -07 35 07.9 18.3   704 – Lincoln Laboratory ETS, New Mexico MPS 1066
1998 04 21.96183 14 35 16.33 -06 23 15.7   046 – Klet Observatory, Ceske Budejovice MPS 1066
1998 04 21.96584 14 35 15.90 -06 22 46.1 18.1 V 046 – Klet Observatory, Ceske Budejovice MPS 1066
1998 04 21.96671 14 35 15.80 -06 22 39.4   046 – Klet Observatory, Ceske Budejovice MPS 1066
1998 04 21.96756 14 35 15.68 -06 22 32.9   046 – Klet Observatory, Ceske Budejovice MPS 1066
1998 04 21.97547 14 35 14.78 -06 21 34.4   557 – Ondrejov MPS 1066
1998 04 21.97841 14 35 14.50 -06 21 11.6 17.4 V 557 – Ondrejov MPS 1066
1998 04 21.97935 14 35 14.36 -06 21 04.9   557 – Ondrejov MPS 1066
1998 04 22.15538 14 34 56.86 -05 59 00.8 17.1   784 – Stull Observatory, Alfred University MPS 1066
1998 04 22.26016 14 34 45.87 -05 45 51.7 17.9   704 – Lincoln Laboratory ETS, New Mexico MPS 1066
1998 04 22.26111 14 34 44.97 -05 45 47.1 17.0   784 – Stull Observatory, Alfred University MPS 1066
1998 04 22.26580 14 34 44.42 -05 45 11.9 16.8   784 – Stull Observatory, Alfred University MPS 1066
1998 04 22.27136 14 34 43.80 -05 44 30.7 16.6   784 – Stull Observatory, Alfred University MPS 1066
1998 04 22.27900 14 34 43.70 -05 43 30.0 17.9   704 – Lincoln Laboratory ETS, New Mexico MPS 1066
1998 04 22.29236 14 34 41.53 -05 41 52.4 17.2   784 – Stull Observatory, Alfred University MPS 1066
1998 04 22.29480 14 34 41.20 -05 41 33.8 17.0   784 – Stull Observatory, Alfred University MPS 1066
1998 04 22.29788 14 34 41.55 -05 41 08.7   704 – Lincoln Laboratory ETS, New Mexico MPS 1066
1998 04 22.29861 14 34 40.74 -05 41 05.2 16.8   784 – Stull Observatory, Alfred University MPS 1066
1998 04 22.31703 14 34 39.36 -05 38 45.0 17.9   704 – Lincoln Laboratory ETS, New Mexico MPS 1066
1998 04 22.33594 14 34 37.24 -05 36 22.9 18.0   704 – Lincoln Laboratory ETS, New Mexico MPS 1066
1998 04 22.83102 14 33 47.06 -04 34 21.4 17.8 V 104 – San Marcello Pistoiese MPS 1066
1998 04 22.83316 14 33 46.88 -04 34 05.2   104 – San Marcello Pistoiese MPS 1066
1998 04 22.83819 14 33 46.35 -04 33 28.6   104 – San Marcello Pistoiese MPS 1066
1998 04 22.84288 14 33 45.86 -04 32 53.3   104 – San Marcello Pistoiese MPS 1066
1998 04 22.89741 14 33 39.64 -04 26 05.8   557 – Ondrejov MPS 1066
1998 04 22.89904 14 33 39.42 -04 25 53.7 17.7 V 557 – Ondrejov MPS 1066
1998 04 23.01525 14 33 26.41 -04 11 19.2 18.0 V 046 – Klet Observatory, Ceske Budejovice MPS 1066
1998 04 23.01610 14 33 26.35 -04 11 13.6   046 – Klet Observatory, Ceske Budejovice MPS 1066
1998 04 23.01694 14 33 26.27 -04 11 06.8   046 – Klet Observatory, Ceske Budejovice MPS 1066
1998 04 23.04486 14 33 23.02 -04 07 36.6   118 – Astronomical and Geophysical Observatory, Modra MPS 1066
1998 04 23.04610 14 33 22.86 -04 07 27.3   118 – Astronomical and Geophysical Observatory, Modra MPS 1066
1998 04 23.04905 14 33 22.53 -04 07 05.1   118 – Astronomical and Geophysical Observatory, Modra MPS 1066
1998 04 23.11469 14 33 17.42 -03 58 47.7 17.1 R 758 – BCC Observatory, Cocoa MPS 1066
1998 04 23.12672 14 33 16.16 -03 57 10.8 17.0 R 758 – BCC Observatory, Cocoa MPS 1066
1998 04 23.12882 14 33 16.06 -03 56 57.1 17.0 R 758 – BCC Observatory, Cocoa MPS 1066
1998 04 23.13090 14 33 15.93 -03 56 39.5 16.9 R 758 – BCC Observatory, Cocoa MPS 1066
1998 04 23.26475 14 33 01.22 -03 39 58.2 18.2   704 – Lincoln Laboratory ETS, New Mexico MPS 1066
1998 04 23.28368 14 32 59.05 -03 37 36.5   704 – Lincoln Laboratory ETS, New Mexico MPS 1066
1998 04 23.28381 14 32 58.98 -03 37 36.3 18.2   704 – Lincoln Laboratory ETS, New Mexico MPS 1066
1998 04 23.30246 14 32 56.90 -03 35 15.2 18.4   704 – Lincoln Laboratory ETS, New Mexico MPS 1066
1998 04 23.30259 14 32 56.87 -03 35 14.4 18.4   704 – Lincoln Laboratory ETS, New Mexico MPS 1066
1998 04 23.32127 14 32 54.69 -03 32 53.9 18.5   704 – Lincoln Laboratory ETS, New Mexico MPS 1066
1998 04 23.32140 14 32 54.78 -03 32 52.9 18.6   704 – Lincoln Laboratory ETS, New Mexico MPS 1066
1998 04 23.34014 14 32 52.56 -03 30 31.9 18.3   704 – Lincoln Laboratory ETS, New Mexico MPS 1066
1998 04 23.34027 14 32 52.51 -03 30 31.1 18.3   704 – Lincoln Laboratory ETS, New Mexico MPS 1066
1998 04 24.02958 14 31 40.15 -02 04 15.5 18.3 V 046 – Klet Observatory, Ceske Budejovice MPS 1066
1998 04 24.03064 14 31 40.02 -02 04 07.3   046 – Klet Observatory, Ceske Budejovice MPS 1066
1998 04 24.03167 14 31 39.89 -02 03 59.9   046 – Klet Observatory, Ceske Budejovice MPS 1066
1998 04 24.04030 14 31 38.86 -02 02 54.7 18.1 R 118 – Astronomical and Geophysical Observatory, Modra MPS 1066
1998 04 24.04046 14 31 38.92 -02 02 53.8   557 – Ondrejov MPS 1066
1998 04 24.04148 14 31 38.74 -02 02 45.8   118 – Astronomical and Geophysical Observatory, Modra MPS 1066
1998 04 24.04208 14 31 38.72 -02 02 41.7   557 – Ondrejov MPS 1066
1998 04 24.04321 14 31 38.55 -02 02 32.5   118 – Astronomical and Geophysical Observatory, Modra MPS 1066
1998 04 24.04363 14 31 38.56 -02 02 30.3 17.6 V 557 – Ondrejov MPS 1066
1998 04 24.28765 14 31 13.75 -01 31 54.5 18.0   704 – Lincoln Laboratory ETS, New Mexico MPS 1066
1998 04 24.30710 14 31 11.49 -01 29 28.9 17.6   704 – Lincoln Laboratory ETS, New Mexico MPS 1066
1998 04 24.32612 14 31 09.35 -01 27 06.4   704 – Lincoln Laboratory ETS, New Mexico MPS 1066
1998 04 24.34506 14 31 07.16 -01 24 44.3 17.9   704 – Lincoln Laboratory ETS, New Mexico MPS 1066
1998 04 24.36413 14 31 04.95 -01 22 21.7   704 – Lincoln Laboratory ETS, New Mexico MPS 1066
1998 04 25.99184 14 28 14.09 +01 59 38.5   118 – Astronomical and Geophysical Observatory, Modra MPS 1066
1998 04 25.99294 14 28 13.96 +01 59 46.7   118 – Astronomical and Geophysical Observatory, Modra MPS 1066
1998 04 25.99501 14 28 13.70 +02 00 01.8   118 – Astronomical and Geophysical Observatory, Modra MPS 1066
1998 04 26.58750 14 27 12.21 +03 12 48.5   360 – Kuma Kogen MPS 1066
1998 04 26.59028 14 27 11.90 +03 13 08.8   360 – Kuma Kogen MPS 1066
1998 04 26.59271 14 27 11.62 +03 13 26.5   360 – Kuma Kogen MPS 1066
1998 04 26.59514 14 27 11.35 +03 13 44.5   360 – Kuma Kogen MPS 1066
1998 04 27.01025 14 26 26.92 +04 04 10.9   118 – Astronomical and Geophysical Observatory, Modra MPS 1296
1998 04 27.01331 14 26 26.58 +04 04 33.7   118 – Astronomical and Geophysical Observatory, Modra MPS 1296
1998 04 27.72175 14 25 11.54 +05 30 36.1 16.2 R 422 – Loomberah MPS 1066
1998 04 27.72300 14 25 11.48 +05 30 45.9 16.0 R 422 – Loomberah MPS 1066
1998 04 27.72424 14 25 11.25 +05 30 54.9 16.1 R 422 – Loomberah MPS 1066
1998 04 27.93909 14 24 50.31 +05 56 00.1 18.0 V 557 – Ondrejov MPS 1066
1998 04 27.94037 14 24 50.17 +05 56 09.0   557 – Ondrejov MPS 1066
1998 04 27.94166 14 24 50.02 +05 56 18.7   557 – Ondrejov MPS 1066
1998 05 03.64688 14 15 12.51 +16 28 19.8 18.2 V 360 – Kuma Kogen MPS 1066
1998 05 03.64965 14 15 12.24 +16 28 36.3   360 – Kuma Kogen MPS 1066
1998 05 03.65226 14 15 11.98 +16 28 51.6   360 – Kuma Kogen MPS 1066
1998 05 04.67457 14 13 33.96 +18 09 49.0 18.0 V 402 – Dynic Astronomical Observatory MPS 1296
1998 05 04.67616 14 13 33.77 +18 09 57.8   402 – Dynic Astronomical Observatory MPS 1296
1998 05 04.67774 14 13 33.61 +18 10 06.4   402 – Dynic Astronomical Observatory MPS 1296
1998 05 07.87852 14 08 44.25 +22 59 24.7 17.9 V 046 – Klet Observatory, Ceske Budejovice MPS 1296
1998 05 07.88096 14 08 44.00 +22 59 37.3   046 – Klet Observatory, Ceske Budejovice MPS 1296
1998 05 07.88207 14 08 43.90 +22 59 42.5   046 – Klet Observatory, Ceske Budejovice MPS 1296
1998 05 08.87527 14 07 18.95 +24 21 13.1 17.4 R 046 – Klet Observatory, Ceske Budejovice MPS 1296
1998 05 08.87745 14 07 18.77 +24 21 24.0   046 – Klet Observatory, Ceske Budejovice MPS 1296
1998 05 08.87970 14 07 18.55 +24 21 34.7   046 – Klet Observatory, Ceske Budejovice MPS 1296
